Alliance, NE

4:53 AM MST on January 20, 2018 (GMT -0700)
Alliance Municipal

Weather History for KAIA - May, 2013

Change the Weather History Date:

Friday, May 31, 2013

  Actual Average Record
Temperature  
Mean Temperature 53 °F 60 °F  
Max Temperature 61 °F 75 °F 95 °F (1940)
Min Temperature 44 °F 45 °F 30 °F (1917)
Degree Days  
Heating Degree Days 12 6  
Month to date heating degree days 298 327  
Since 1 July heating degree days 7128 7215  
Cooling Degree Days 0 1  
Month to date cooling degree days 22 10  
Year to date cooling degree days 22 10  
Growing Degree Days 2 (Base 50)    
Moisture  
Dew Point 42 °F    
Average Humidity 71    
Maximum Humidity 92    
Minimum Humidity 49    
Precipitation  
Precipitation 0.11 in 0.13 in 1.30 in (1996)
Month to date precipitation 2.37 2.65  
Year to date precipitation 5.19 5.51  
Sea Level Pressure  
Sea Level Pressure 29.75 in    
Wind  
Wind Speed 21 mph (WNW)    
Max Wind Speed 40 mph    
Max Gust Speed 51 mph    
Visibility 10 miles    
Events Rain    
T = Trace of Precipitation, MM = Missing Value Source: NWS Daily Summary

Daily Weather History Graph

Daily Weather History Graph

Search for Another Location

Airport or City:

Trip Planner

Search our weather history database for the weather conditions in past years. The results will help you decide how hot, cold, wet, or windy it might be!

Date:

Astronomy

May. 31, 2013 Rise Set
Actual Time 5:18 AM MDT 8:19 PM MDT
Civil Twilight 4:44 AM MDT 8:53 PM MDT
Nautical Twilight 4:01 AM MDT 9:36 PM MDT
Astronomical Twilight 3:11 AM MDT 10:27 PM MDT
Moon 12:50 AM MDT (5/31) 12:41 PM MDT (5/31)
Length of Visible Light 16h 08m
Length of Day
15h 01m
Waning Gibbous, 51% of the Moon is Illuminated
May 31
Waning Gibbous
May 31
Last Quarter
Jun 8
New
Jun 16
First Quarter
Jun 23
Full

Hourly Weather History & Observations

Time (MDT) Temp. Windchill Dew Point Humidity Pressure Visibility Wind Dir Wind Speed Gust Speed Precip Events Conditions
12:53 AM 46.9 °F - 41.0 °F 80% 29.67 in 10.0 mi West 11.5 mph - N/A   Clear
1:53 AM 45.0 °F 39.7 °F 41.0 °F 86% 29.67 in 10.0 mi West 10.4 mph - N/A   Clear
2:53 AM 45.0 °F 39.7 °F 41.0 °F 86% 29.67 in 10.0 mi West 10.4 mph - N/A   Clear
3:53 AM 46.0 °F 41.0 °F 42.1 °F 86% 29.64 in 10.0 mi West 10.4 mph - N/A   Clear
4:53 AM 44.1 °F 39.5 °F 41.0 °F 89% 29.67 in 10.0 mi West 8.1 mph - N/A   Clear
5:53 AM 44.1 °F 39.0 °F 42.1 °F 93% 29.67 in 10.0 mi West 9.2 mph - N/A   Clear
6:53 AM 48.0 °F - 43.0 °F 83% 29.67 in 10.0 mi West 11.5 mph - N/A   Clear
7:53 AM 51.1 °F - 43.0 °F 74% 29.69 in 10.0 mi West 16.1 mph - N/A   Partly Cloudy
8:53 AM 53.1 °F - 42.1 °F 66% 29.70 in 10.0 mi WNW 15.0 mph - N/A   Overcast
9:53 AM 55.9 °F - 39.9 °F 55% 29.70 in 10.0 mi WNW 26.5 mph 35.7 mph N/A   Mostly Cloudy
10:53 AM 57.0 °F - 39.9 °F 53% 29.70 in 10.0 mi WNW 32.2 mph 39.1 mph 0.00 in   Overcast
11:53 AM 61.0 °F - 41.0 °F 48% 29.70 in 10.0 mi WNW 31.1 mph 41.4 mph 0.00 in   Mostly Cloudy
12:53 PM 57.0 °F - 42.1 °F 57% 29.73 in 10.0 mi WNW 29.9 mph 44.9 mph 0.00 in Rain Light Rain
1:53 PM 55.9 °F - 42.1 °F 60% 29.73 in 10.0 mi WNW 21.9 mph 36.8 mph 0.00 in Rain Light Rain
2:53 PM 59.0 °F - 39.0 °F 48% 29.74 in 10.0 mi NW 31.1 mph 40.3 mph 0.00 in   Overcast
3:53 PM 57.0 °F - 39.9 °F 53% 29.76 in 10.0 mi NW 25.3 mph 47.2 mph N/A   Overcast
4:53 PM 52.0 °F - 43.0 °F 71% 29.83 in 10.0 mi NW 27.6 mph 41.4 mph 0.00 in Rain Light Rain
5:53 PM 51.1 °F - 43.0 °F 74% 29.83 in 10.0 mi WNW 21.9 mph 34.5 mph 0.00 in   Overcast
6:53 PM 48.9 °F - 44.1 °F 83% 29.84 in 10.0 mi WNW 24.2 mph 34.5 mph 0.01 in Rain Light Rain
7:53 PM 48.9 °F - 44.1 °F 83% 29.86 in 10.0 mi NW 21.9 mph 35.7 mph 0.02 in Rain Light Rain
8:53 PM 48.0 °F - 44.1 °F 86% 29.87 in 10.0 mi NW 23.0 mph 29.9 mph 0.02 in Rain Light Rain
9:53 PM 46.9 °F - 43.0 °F 86% 29.88 in 10.0 mi NW 20.7 mph 27.6 mph 0.05 in Rain Light Rain
10:53 PM 46.9 °F - 42.1 °F 83% 29.88 in 10.0 mi NW 23.0 mph 32.2 mph 0.01 in Rain Light Rain
11:53 PM 46.9 °F - 42.1 °F 83% 29.88 in 10.0 mi WNW 21.9 mph 32.2 mph 0.00 in   Overcast